Time,TemperatureF,DewpointF,PressureIn,WindDirection,WindDirectionDegrees,WindSpeedMPH,WindSpeedGustMPH,Humidity,HourlyPrecipIn,Conditions,Clouds,dailyrainin,SoftwareType,DateUTC
2013-07-16 00:02:00,75.8,69.0,30.11,SSW,204,1.0,3.0,80,0.00,,,0.00,weatherlink.com 1.10,2013-07-16 05:02:00,
2013-07-16 00:17:00,76.0,69.0,30.11,SSW,198,1.0,4.0,79,0.00,,,0.00,weatherlink.com 1.10,2013-07-16 05:17:00,
2013-07-16 00:32:00,76.3,69.0,30.11,SSW,192,3.0,6.0,79,0.00,,,0.00,weatherlink.com 1.10,2013-07-16 05:32:00,
2013-07-16 00:47:00,76.1,70.0,30.11,SW,227,3.0,4.0,81,0.00,,,0.00,weatherlink.com 1.10,2013-07-16 05:47:00,
2013-07-16 01:02:00,76.1,70.0,30.11,SSE,147,3.0,5.0,81,0.00,,,0.00,weatherlink.com 1.10,2013-07-16 06:02:00,
2013-07-16 01:17:00,76.1,70.0,30.11,SE,146,3.0,7.0,82,0.00,,,0.00,weatherlink.com 1.10,2013-07-16 06:17:00,
2013-07-16 01:32:00,76.1,71.0,30.11,South,187,3.0,8.0,83,0.00,,,0.00,weatherlink.com 1.10,2013-07-16 06:32:00,
2013-07-16 01:47:00,75.9,71.0,30.11,SSE,157,3.0,7.0,84,0.00,,,0.00,weatherlink.com 1.10,2013-07-16 06:47:00,
2013-07-16 02:02:00,75.7,71.0,30.11,SE,130,5.0,6.0,86,0.00,,,0.00,weatherlink.com 1.10,2013-07-16 07:02:00,
2013-07-16 02:18:00,75.4,71.0,30.11,SW,215,0.0,5.0,87,0.00,,,0.00,weatherlink.com 1.10,2013-07-16 07:18:00,
2013-07-16 02:33:00,75.1,72.0,30.11,SSW,204,3.0,4.0,89,0.00,,,0.00,weatherlink.com 1.10,2013-07-16 07:33:00,
2013-07-16 02:49:00,75.5,72.0,30.11,SW,230,3.0,7.0,89,0.00,,,0.00,weatherlink.com 1.10,2013-07-16 07:49:00,
2013-07-16 03:03:00,76.1,72.0,30.11,SSW,210,3.0,9.0,88,0.00,,,0.00,weatherlink.com 1.10,2013-07-16 08:03:00,
2013-07-16 03:18:00,76.3,72.0,30.11,SW,235,8.0,12.0,86,0.00,,,0.00,weatherlink.com 1.10,2013-07-16 08:18:00,
2013-07-16 03:33:00,76.2,72.0,30.10,SSW,203,5.0,11.0,86,0.00,,,0.00,weatherlink.com 1.10,2013-07-16 08:33:00,
2013-07-16 03:48:00,75.8,72.0,30.10,SW,224,5.0,9.0,87,0.00,,,0.00,weatherlink.com 1.10,2013-07-16 08:48:00,
2013-07-16 04:03:00,75.4,72.0,30.10,SSW,204,3.0,9.0,88,0.00,,,0.00,weatherlink.com 1.10,2013-07-16 09:03:00,
2013-07-16 04:18:00,75.3,72.0,30.10,SW,224,4.0,10.0,88,0.00,,,0.00,weatherlink.com 1.10,2013-07-16 09:18:00,
2013-07-16 04:33:00,75.0,72.0,30.10,SSW,213,5.0,9.0,89,0.00,,,0.00,weatherlink.com 1.10,2013-07-16 09:33:00,
2013-07-16 04:48:00,74.7,71.0,30.10,SSW,202,4.0,8.0,89,0.00,,,0.00,weatherlink.com 1.10,2013-07-16 09:48:00,
2013-07-16 05:03:00,74.6,71.0,30.10,South,180,6.0,10.0,89,0.00,,,0.00,weatherlink.com 1.10,2013-07-16 10:03:00,
2013-07-16 05:18:00,74.4,71.0,30.10,SSW,208,5.0,9.0,90,0.00,,,0.00,weatherlink.com 1.10,2013-07-16 10:18:00,
2013-07-16 05:33:00,74.4,71.0,30.11,SW,215,5.0,10.0,90,0.00,,,0.00,weatherlink.com 1.10,2013-07-16 10:33:00,
2013-07-16 05:48:00,73.9,71.0,30.11,SW,218,4.0,6.0,91,0.00,,,0.00,weatherlink.com 1.10,2013-07-16 10:48:00,
2013-07-16 06:03:00,73.8,71.0,30.11,SW,220,4.0,7.0,91,0.00,,,0.00,weatherlink.com 1.10,2013-07-16 11:03:00,
2013-07-16 06:18:00,74.0,71.0,30.12,WSW,251,1.0,6.0,91,0.00,,,0.00,weatherlink.com 1.10,2013-07-16 11:18:00,
2013-07-16 06:33:00,74.4,71.0,30.12,SW,223,5.0,5.0,90,0.00,,,0.00,weatherlink.com 1.10,2013-07-16 11:33:00,
2013-07-16 06:48:00,74.7,71.0,30.13,SW,232,2.0,6.0,89,0.00,,,0.00,weatherlink.com 1.10,2013-07-16 11:48:00,
2013-07-16 07:03:00,75.3,72.0,30.13,WSW,240,8.0,8.0,89,0.00,,,0.00,weatherlink.com 1.10,2013-07-16 12:03:00,
2013-07-16 07:18:00,76.1,72.0,30.13,SSW,204,5.0,8.0,87,0.00,,,0.00,weatherlink.com 1.10,2013-07-16 12:18:00,
2013-07-16 07:33:00,76.6,72.0,30.14,SW,228,2.0,8.0,86,0.00,,,0.00,weatherlink.com 1.10,2013-07-16 12:33:00,
2013-07-16 07:48:00,77.2,73.0,30.14,SSW,212,4.0,8.0,86,0.00,,,0.00,weatherlink.com 1.10,2013-07-16 12:48:00,
2013-07-16 08:03:00,77.7,73.0,30.13,SSW,211,8.0,9.0,84,0.00,,,0.00,weatherlink.com 1.10,2013-07-16 13:03:00,
2013-07-16 08:18:00,78.4,73.0,30.14,SW,222,3.0,10.0,83,0.00,,,0.00,weatherlink.com 1.10,2013-07-16 13:18:00,
2013-07-16 08:33:00,79.2,73.0,30.14,SW,216,2.0,8.0,82,0.00,,,0.00,weatherlink.com 1.10,2013-07-16 13:33:00,
2013-07-16 08:48:00,79.9,74.0,30.14,South,187,2.0,9.0,81,0.00,,,0.00,weatherlink.com 1.10,2013-07-16 13:48:00,
2013-07-16 09:03:00,80.6,74.0,30.14,SW,231,2.0,10.0,80,0.00,,,0.00,weatherlink.com 1.10,2013-07-16 14:03:00,
2013-07-16 09:18:00,81.0,73.0,30.14,SW,217,8.0,14.0,77,0.00,,,0.00,weatherlink.com 1.10,2013-07-16 14:18:00,
2013-07-16 09:33:00,81.6,73.0,30.14,SW,233,3.0,10.0,76,0.00,,,0.00,weatherlink.com 1.10,2013-07-16 14:33:00,
2013-07-16 09:48:00,82.0,73.0,30.14,SSW,198,7.0,11.0,75,0.00,,,0.00,weatherlink.com 1.10,2013-07-16 14:48:00,
2013-07-16 10:03:00,82.6,74.0,30.14,SW,220,5.0,10.0,76,0.00,,,0.00,weatherlink.com 1.10,2013-07-16 15:03:00,
2013-07-16 10:18:00,82.8,74.0,30.14,SSW,205,6.0,12.0,74,0.00,,,0.00,weatherlink.com 1.10,2013-07-16 15:18:00,
2013-07-16 10:34:00,83.2,73.0,30.13,SSW,211,7.0,10.0,71,0.00,,,0.00,weatherlink.com 1.10,2013-07-16 15:34:00,
2013-07-16 10:49:00,83.5,73.0,30.13,SSW,208,2.0,11.0,70,0.00,,,0.00,weatherlink.com 1.10,2013-07-16 15:49:00,
2013-07-16 11:04:00,84.3,74.0,30.14,SW,226,10.0,13.0,70,0.00,,,0.00,weatherlink.com 1.10,2013-07-16 16:04:00,
2013-07-16 11:19:00,84.5,74.0,30.14,WSW,241,7.0,14.0,71,0.00,,,0.00,weatherlink.com 1.10,2013-07-16 16:19:00,
2013-07-16 11:34:00,85.0,73.0,30.14,WSW,240,8.0,11.0,67,0.00,,,0.00,weatherlink.com 1.10,2013-07-16 16:34:00,
2013-07-16 11:49:00,85.2,73.0,30.14,SSW,201,7.0,12.0,66,0.00,,,0.00,weatherlink.com 1.10,2013-07-16 16:49:00,
2013-07-16 12:04:00,85.4,74.0,30.14,SSW,211,8.0,12.0,69,0.00,,,0.00,weatherlink.com 1.10,2013-07-16 17:04:00,
2013-07-16 12:19:00,86.1,73.0,30.14,SSW,209,4.0,10.0,66,0.00,,,0.00,weatherlink.com 1.10,2013-07-16 17:19:00,
2013-07-16 12:34:00,86.5,73.0,30.14,SSW,212,6.0,11.0,64,0.00,,,0.00,weatherlink.com 1.10,2013-07-16 17:34:00,
2013-07-16 12:49:00,86.6,72.0,30.13,SSW,207,13.0,14.0,63,0.00,,,0.00,weatherlink.com 1.10,2013-07-16 17:49:00,
2013-07-16 13:04:00,87.0,73.0,30.13,South,188,6.0,11.0,63,0.00,,,0.00,weatherlink.com 1.10,2013-07-16 18:04:00,
2013-07-16 13:19:00,86.4,72.0,30.14,SW,219,3.0,9.0,63,0.00,,,0.00,weatherlink.com 1.10,2013-07-16 18:19:00,
2013-07-16 13:34:00,87.6,73.0,30.13,WSW,237,8.0,13.0,63,0.00,,,0.00,weatherlink.com 1.10,2013-07-16 18:34:00,
2013-07-16 13:49:00,87.4,74.0,30.13,SW,230,9.0,12.0,64,0.00,,,0.00,weatherlink.com 1.10,2013-07-16 18:49:00,
2013-07-16 14:04:00,87.9,73.0,30.12,WSW,244,8.0,10.0,62,0.00,,,0.00,weatherlink.com 1.10,2013-07-16 19:04:00,
2013-07-16 14:19:00,88.2,73.0,30.12,WSW,244,6.0,9.0,61,0.00,,,0.00,weatherlink.com 1.10,2013-07-16 19:19:00,
2013-07-16 14:34:00,88.3,72.0,30.12,SSW,212,5.0,13.0,59,0.00,,,0.00,weatherlink.com 1.10,2013-07-16 19:34:00,
2013-07-16 14:49:00,87.9,73.0,30.12,SSW,213,7.0,15.0,62,0.00,,,0.00,weatherlink.com 1.10,2013-07-16 19:49:00,
2013-07-16 15:04:00,88.0,72.0,30.12,South,185,8.0,16.0,60,0.00,,,0.00,weatherlink.com 1.10,2013-07-16 20:04:00,
2013-07-16 15:19:00,88.8,70.0,30.12,WSW,240,4.0,15.0,54,0.00,,,0.00,weatherlink.com 1.10,2013-07-16 20:19:00,
2013-07-16 15:34:00,89.2,73.0,30.12,SSW,210,3.0,13.0,59,0.00,,,0.00,weatherlink.com 1.10,2013-07-16 20:34:00,
2013-07-16 15:49:00,89.0,70.0,30.12,WSW,250,6.0,15.0,53,0.00,,,0.00,weatherlink.com 1.10,2013-07-16 20:49:00,
2013-07-16 16:04:00,88.9,70.0,30.11,WSW,248,13.0,14.0,54,0.00,,,0.00,weatherlink.com 1.10,2013-07-16 21:04:00,
2013-07-16 16:19:00,88.8,71.0,30.11,SSW,208,11.0,15.0,56,0.00,,,0.00,weatherlink.com 1.10,2013-07-16 21:19:00,
2013-07-16 16:34:00,89.0,70.0,30.11,SW,230,5.0,15.0,54,0.00,,,0.00,weatherlink.com 1.10,2013-07-16 21:34:00,
2013-07-16 16:49:00,88.8,71.0,30.11,SSW,194,7.0,16.0,56,0.00,,,0.00,weatherlink.com 1.10,2013-07-16 21:49:00,
2013-07-16 17:04:00,88.9,70.0,30.11,WSW,247,11.0,16.0,53,0.00,,,0.00,weatherlink.com 1.10,2013-07-16 22:04:00,
2013-07-16 17:19:00,88.9,70.0,30.12,SW,217,10.0,16.0,53,0.00,,,0.00,weatherlink.com 1.10,2013-07-16 22:19:00,
2013-07-16 17:34:00,88.8,70.0,30.12,SW,214,9.0,13.0,54,0.00,,,0.00,weatherlink.com 1.10,2013-07-16 22:34:00,
2013-07-16 17:49:00,88.8,70.0,30.11,SW,233,4.0,11.0,54,0.00,,,0.00,weatherlink.com 1.10,2013-07-16 22:49:00,
2013-07-16 18:04:00,88.8,72.0,30.11,SW,230,4.0,8.0,57,0.00,,,0.00,weatherlink.com 1.10,2013-07-16 23:04:00,
2013-07-16 18:19:00,88.7,70.0,30.10,SW,228,9.0,12.0,54,0.00,,,0.00,weatherlink.com 1.10,2013-07-16 23:19:00,
2013-07-16 18:34:00,88.4,71.0,30.10,SW,222,6.0,13.0,56,0.00,,,0.00,weatherlink.com 1.10,2013-07-16 23:34:00,
2013-07-16 18:49:00,88.3,71.0,30.11,WSW,258,3.0,7.0,57,0.00,,,0.00,weatherlink.com 1.10,2013-07-16 23:49:00,
2013-07-16 19:04:00,88.2,71.0,30.10,SW,216,2.0,6.0,56,0.00,,,0.00,weatherlink.com 1.10,2013-07-17 00:04:00,
2013-07-16 19:19:00,88.1,72.0,30.10,SW,223,1.0,5.0,60,0.00,,,0.00,weatherlink.com 1.10,2013-07-17 00:19:00,
2013-07-16 19:34:00,88.3,72.0,30.10,SW,233,2.0,4.0,59,0.00,,,0.00,weatherlink.com 1.10,2013-07-17 00:34:00,
2013-07-16 19:49:00,87.8,73.0,30.10,SW,216,2.0,3.0,61,0.00,,,0.00,weatherlink.com 1.10,2013-07-17 00:49:00,
2013-07-16 20:04:00,87.3,74.0,30.10,SW,228,0.0,2.0,64,0.00,,,0.00,weatherlink.com 1.10,2013-07-17 01:04:00,
2013-07-16 20:19:00,86.4,72.0,30.10,SSW,212,1.0,3.0,63,0.00,,,0.00,weatherlink.com 1.10,2013-07-17 01:19:00,
2013-07-16 20:34:00,83.9,72.0,30.10,SW,224,2.0,3.0,67,0.00,,,0.00,weatherlink.com 1.10,2013-07-17 01:34:00,
2013-07-16 20:49:00,82.6,71.0,30.10,SW,228,0.0,1.0,69,0.00,,,0.00,weatherlink.com 1.10,2013-07-17 01:49:00,
2013-07-16 21:04:00,81.8,72.0,30.11,SW,232,0.0,0.0,71,0.00,,,0.00,weatherlink.com 1.10,2013-07-17 02:04:00,
2013-07-16 21:19:00,80.9,72.0,30.12,SW,233,0.0,1.0,74,0.00,,,0.00,weatherlink.com 1.10,2013-07-17 02:19:00,
2013-07-16 21:34:00,80.0,71.0,30.12,SW,232,0.0,0.0,75,0.00,,,0.00,weatherlink.com 1.10,2013-07-17 02:34:00,
2013-07-16 21:49:00,79.4,72.0,30.13,SW,232,0.0,1.0,78,0.00,,,0.00,weatherlink.com 1.10,2013-07-17 02:49:00,
2013-07-16 22:04:00,78.8,72.0,30.14,SW,233,1.0,1.0,80,0.00,,,0.00,weatherlink.com 1.10,2013-07-17 03:04:00,
2013-07-16 22:19:00,78.3,72.0,30.13,SW,233,0.0,2.0,82,0.00,,,0.00,weatherlink.com 1.10,2013-07-17 03:19:00,
2013-07-16 22:34:00,77.9,72.0,30.14,SW,232,0.0,1.0,83,0.00,,,0.00,weatherlink.com 1.10,2013-07-17 03:34:00,
2013-07-16 22:49:00,77.6,73.0,30.14,SW,232,0.0,1.0,84,0.00,,,0.00,weatherlink.com 1.10,2013-07-17 03:49:00,
2013-07-16 23:04:00,77.0,73.0,30.14,SW,232,0.0,1.0,86,0.00,,,0.00,weatherlink.com 1.10,2013-07-17 04:04:00,
2013-07-16 23:19:00,76.8,72.0,30.14,WSW,244,1.0,2.0,85,0.00,,,0.00,weatherlink.com 1.10,2013-07-17 04:19:00,
2013-07-16 23:34:00,76.7,72.0,30.14,WSW,239,2.0,2.0,86,0.00,,,0.00,weatherlink.com 1.10,2013-07-17 04:34:00,
2013-07-16 23:49:00,76.2,72.0,30.15,SW,223,2.0,3.0,86,0.00,,,0.00,weatherlink.com 1.10,2013-07-17 04:49:00,